Location: Killam
(52.7910°N, 111.8608°W)
Time: 21:29:04
(UTC+00:00)

Vanguard 2 Rocket - Pass Details

Date: 18 February 2026
Orbit: 553 x 3287 km, 32.9° (Epoch: 6 March)

Event Time Altitude Azimuth Distance (km) Brightness Sun altitude
Rises 21:58:44 0° 248° (WSW) 7,057 12.4 19.4°
Reaches altitude 10° 22:04:37 10° 240° (WSW) 5,761 12.5 18.9°
Maximum altitude 22:17:43 30° 188° (S) 3,400 11.0 17.6°
Drops below altitude 10° 22:26:35 10° 133° (SE) 3,852 10.2 16.8°
Sets 22:29:37 0° 122° (ESE) 4,485 10.3 16.4°
